Flag for U.S.A. Weather past 2 weeks in Alpena, Michigan, U.S.A.

Now
59 °F

Fog.


Feels Like: 59 °F
Forecast: 59 / 72 °F
Wind: No wind

Location: Alpena County Regional Airport

Current Time: Aug 23, 2014 at 3:46:35 AM

Latest Report: Aug 23, 2014 at 2:54 AM


Visibility: 1 mi

Pressure: 30.06 "Hg

Humidity: 100%

Dew point: 59 °F

Location of AlpenaLocation

Historic Weather in Alpena — Graph

°F

Alpena temperature yesterday

Maximum temperature yesterday: 77 °F (at 2:54 PM)
Minimum temperature yesterday: 57 °F (at 4:54 AM)
Average temperature yesterday: 65 °F

Past Weeks' High & Low Weather Summary

 TemperatureHumidityPressure
High80 °F (Aug 9, 1:54 PM)100% (Aug 18, 5:54 AM)30.20 "Hg (Aug 18, 5:54 AM)
Low45 °F (Aug 18, 3:54 AM)33% (Aug 14, 3:54 PM)29.59 "Hg (Aug 12, 5:54 AM)
Average64 °F79%29.94 "Hg
* Reported Aug 8 1:54 AM — Aug 23 1:54 AM, Alpena, Weather by CustomWeather, © 2014

Note: Actual official high and low records may vary slightly from our data, if they occured in-between our weather recording intervals... More about our weather records

Advertising

Alpena weather history for previous 24 hours

 ConditionsComfort  
Time TempWeatherWind HumidityBarometerVisibility
1:54 AM
Aug 23
60 °FFog.No wind100%30.06 "Hg0 mi
1:01 AM61 °FFog.No wind97%30.07 "Hg0 mi
11:54 PM
Aug 22
62 °FFog.No wind100%30.06 "Hg0 mi
11:01 PM62 °FFog.No wind100%30.07 "Hg0 mi
10:04 PM63 °FFog.3 mph100%30.06 "Hg0 mi
9:54 PM63 °FFog.3 mph100%30.06 "Hg1 mi
8:54 PM64 °FSunny.3 mph97%30.04 "Hg8 mi
7:54 PM68 °FSunny.5 mph87%30.04 "Hg10 mi
6:54 PM71 °FSunny.9 mph81%30.03 "Hg10 mi
5:54 PM73 °FScattered clouds.8 mph76%30.02 "Hg10 mi
4:54 PM75 °FSunny.8 mph71%30.01 "Hg10 mi
3:54 PM77 °FPassing clouds.7 mph62%30.00 "Hg10 mi
2:54 PM77 °FSunny.6 mph62%30.01 "Hg10 mi
1:54 PM76 °FScattered clouds.9 mph72%30.01 "Hg10 mi
12:54 PM76 °FScattered clouds.5 mph67%30.02 "Hg10 mi
11:54 AM71 °FPartly sunny.No wind76%30.02 "Hg10 mi
10:54 AM68 °FLow clouds.No wind87%30.03 "Hg10 mi
9:54 AM64 °FLow clouds.6 mph100%30.03 "Hg8 mi
8:54 AM63 °FFog.No wind100%30.02 "Hg0 mi
7:54 AM61 °FFog.No wind100%30.01 "Hg0 mi
6:54 AM59 °FFog.No wind96%29.99 "Hg1 mi
6:02 AM58 °FFog.No wind97%29.98 "Hg1 mi
4:54 AM57 °FClear.No wind100%29.98 "Hg10 mi
4:01 AM59 °FFog.No wind96%29.99 "Hg6 mi
3:02 AM58 °FFog.No wind97%30.00 "Hg3 mi
Weather by CustomWeather, © 2014

See weather overviewHow to use our weather pages